TimeCDT,TemperatureF,Dew PointF,Humidity,Sea Level PressureIn,VisibilityMPH,Wind Direction,Wind SpeedMPH,Gust SpeedMPH,PrecipitationIn,Events,Conditions,WindDirDegrees,DateUTC
12:58 AM,70.5,64.0,80,30.02,10.0,East,5.8,-,N/A,,Clear,90,2013-07-11 05:58:00
1:58 AM,68.9,64.8,87,30.02,10.0,NE,8.1,-,N/A,,Clear,50,2013-07-11 06:58:00
2:58 AM,69.3,65.1,87,30.01,10.0,NE,6.9,-,N/A,,Clear,40,2013-07-11 07:58:00
3:58 AM,69.6,63.9,82,30.00,10.0,East,5.8,-,N/A,,Clear,80,2013-07-11 08:58:00
4:58 AM,66.7,63.1,88,30.00,10.0,NE,4.6,-,N/A,,Clear,40,2013-07-11 09:58:00
5:58 AM,66.6,62.6,87,30.00,10.0,NE,2.3,-,N/A,,Clear,40,2013-07-11 10:58:00
6:58 AM,67.8,63.9,87,30.03,10.0,NE,6.9,-,N/A,,Clear,50,2013-07-11 11:58:00
7:58 AM,72.5,63.1,72,30.09,10.0,WSW,10.4,-,N/A,,Scattered Clouds,250,2013-07-11 12:58:00
8:58 AM,74.3,63.0,68,30.08,10.0,Calm,Calm,-,N/A,,Clear,0,2013-07-11 13:58:00
9:58 AM,76.5,63.9,65,30.06,10.0,Variable,2.3,-,N/A,,Partly Cloudy,0,2013-07-11 14:58:00
10:58 AM,78.8,63.5,59,30.07,10.0,ESE,4.6,-,N/A,,Partly Cloudy,120,2013-07-11 15:58:00
11:55 AM,82.4,64.4,54,30.07,10.0,ESE,13.8,-,N/A,,Partly Cloudy,120,2013-07-11 16:55:00
11:58 AM,82.8,63.7,52,30.04,10.0,SE,12.7,21.9,N/A,,Partly Cloudy,130,2013-07-11 16:58:00
12:58 PM,86.4,64.0,47,30.00,10.0,SE,12.7,21.9,N/A,,Clear,140,2013-07-11 17:58:00
1:58 PM,89.2,61.0,39,29.97,10.0,East,11.5,-,N/A,,Scattered Clouds,90,2013-07-11 18:58:00
2:58 PM,92.3,61.3,35,29.96,10.0,SE,9.2,-,N/A,,Clear,140,2013-07-11 19:58:00
3:58 PM,93.2,61.3,34,29.96,10.0,South,11.5,-,N/A,,Partly Cloudy,170,2013-07-11 20:58:00
4:58 PM,93.7,61.5,34,29.95,10.0,ESE,6.9,-,N/A,,Clear,120,2013-07-11 21:58:00
5:58 PM,93.2,62.2,36,29.93,10.0,East,9.2,-,N/A,,Clear,80,2013-07-11 22:58:00
6:58 PM,90.3,62.6,39,29.92,10.0,East,12.7,20.7,N/A,,Clear,90,2013-07-11 23:58:00
7:58 PM,86.7,61.7,43,29.92,10.0,East,9.2,-,N/A,,Scattered Clouds,90,2013-07-12 00:58:00
8:58 PM,84.0,58.6,42,29.93,10.0,East,9.2,-,N/A,,Scattered Clouds,100,2013-07-12 01:58:00
9:58 PM,81.0,58.1,46,29.95,10.0,Variable,4.6,-,N/A,,Clear,0,2013-07-12 02:58:00
10:58 PM,77.0,58.8,53,29.96,10.0,East,4.6,-,N/A,,Clear,80,2013-07-12 03:58:00
11:58 PM,76.3,59.4,56,29.96,10.0,ESE,8.1,-,N/A,,Clear,110,2013-07-12 04:58:00